DB0BQ-11 Weather Reports


time (UTC)temp
C
wind
direction
speed
KPH
gust
KPH
rain 1hr
cm
rain 24hr
cm
rain mn
cm
humidity
%
barometer
mb
20260506134018 8 227 4.8 11.3 0.00 0.00 0.00 97 1007.9
20260506133036 8 233 8.0 20.9 0.00 0.00 0.00 98 1007.8
20260506132034 8 230 6.4 11.3 0.00 0.00 0.00 98 1007.8
20260506131032 8 237 8.0 20.9 0.00 0.00 0.00 97 1007.7
20260506130030 8 236 4.8 14.5 0.00 0.00 0.00 98 1007.6
20260506125027 8 234 4.8 12.9 0.00 0.00 0.00 98 1007.6
20260506124025 8 216 4.8 12.9 0.00 0.00 0.00 98 1007.7
20260506123043 8 223 4.8 12.9 0.00 0.00 0.00 98 1007.6
20260506122021 8 223 4.8 12.9 0.00 0.00 0.00 98 1007.4
20260506121019 8 226 3.2 6.4 0.00 0.00 0.00 98 1007.4
20260506120017 8 219 4.8 9.7 0.00 0.00 0.00 99 1007.2
20260506115035 8 222 3.2 9.7 0.00 0.00 0.00 98 1007.2
20260506114032 8 234 8.0 19.3 0.00 0.00 0.00 99 1007.2
20260506113031 8 231 8.0 17.7 0.00 0.00 0.00 98 1007.1
20260506112028 8 229 4.8 14.5 0.00 0.00 0.00 98 1007.2
20260506111026 8 232 4.8 14.5 0.00 0.00 0.00 98 1007.2
20260506110024 8 235 8.0 14.5 0.00 0.00 0.00 97 1007.1
20260506105022 8 229 4.8 14.5 0.00 0.00 0.00 97 1007.1
20260506104019 8 232 4.8 16.1 0.00 0.00 0.00 98 1006.9
20260506103038 8 233 8.0 19.3 0.00 0.00 0.00 98 1006.9
20260506102015 8 228 6.4 16.1 0.00 0.00 0.00 98 1006.8
20260506101033 8 230 6.4 14.5 0.00 0.00 0.00 98 1006.7
20260506100031 8 211 4.8 12.9 0.00 0.00 0.00 98 1006.7
20260506095029 8 224 4.8 12.9 0.00 0.00 0.00 98 1006.6
20260506094047 8 232 6.4 16.1 0.00 0.00 0.00 98 1006.5
20260506093025 8 232 3.2 12.9 0.00 0.00 0.00 98 1006.4
20260506092022 9 235 3.2 9.7 0.00 0.00 0.00 99 1006.3
20260506091020 9 195 3.2 9.7 0.00 0.00 0.00 99 1006.0
20260506090018 9 243 3.2 6.4 0.00 0.00 0.00 99 1006.2
20260506085016 9 218 3.2 8.0 0.00 0.00 0.00 99 1006.1
20260506084034 9 238 4.8 14.5 0.00 0.00 0.00 98 1006.0
20260506083032 9 239 3.2 16.1 0.00 0.00 0.00 99 1006.0
20260506082030 9 205 3.2 9.7 0.00 0.00 0.00 99 1006.0
20260506081028 9 219 4.8 11.3 0.00 0.00 0.00 99 1005.9
20260506073019 9 227 4.8 9.7 0.00 0.00 0.00 99 1005.7
20260506072037 9 236 8.0 12.9 0.00 0.00 0.00 99 1005.8
20260506071035 9 229 6.4 12.9 0.00 0.00 0.00 99 1005.7
20260506062024 9 234 6.4 16.1 0.00 0.00 0.00 99 1005.5
20260506061022 9 207 3.2 8.0 0.00 0.00 0.00 99 1005.4
20260506051109 9 229 3.2 9.7 0.00 0.00 0.00 99 1005.4
20260506045044 9 217 1.6 4.8 0.00 0.00 0.00 99 1005.3
20260506044022 9 229 6.4 14.5 0.00 0.00 0.00 99 1005.2
20260506043020 9 234 4.8 14.5 0.00 0.00 0.00 99 1005.3
20260506042018 9 229 6.4 16.1 0.00 0.00 0.00 99 1005.1
20260506041016 9 231 4.8 14.5 0.00 0.00 0.00 99 1005.3
20260506040034 9 233 8.0 16.1 0.00 0.00 0.00 99 1005.3
20260506035051 9 231 6.4 14.5 0.00 0.00 0.00 99 1005.3
20260506034029 9 234 8.0 12.9 0.00 0.00 0.00 99 1005.3
20260506033027 9 229 6.4 16.1 0.00 0.00 0.00 99 1005.4
20260506032025 9 231 6.4 14.5 0.00 0.00 0.00 99 1005.5
20260506031023 9 233 6.4 14.5 0.00 0.00 0.00 99 1005.5
20260506030021 9 224 4.8 12.9 0.00 0.00 0.00 99 1005.6
20260506025039 9 235 11.3 20.9 0.00 0.00 0.00 99 1005.5
20260506024016 9 234 9.7 22.5 0.00 0.00 0.00 99 1005.6
20260506023034 9 235 9.7 20.9 0.00 0.00 0.00 99 1005.6
20260506022032 9 241 8.0 20.9 0.00 0.00 0.00 99 1005.7
20260506021030 10 237 9.7 19.3 0.00 0.00 0.00 99 1005.8
20260506020028 10 237 9.7 17.7 0.00 0.00 0.00 99 1005.7
20260506015025 10 231 8.0 20.9 0.00 0.00 0.00 99 1005.8
20260506014024 10 236 8.0 16.1 0.00 0.00 0.00 99 1005.8
20260506013021 10 229 4.8 17.7 0.00 0.00 0.00 99 1005.9
20260506012019 10 227 4.8 11.3 0.00 0.00 0.00 99 1005.9
20260506011037 10 219 4.8 14.5 0.00 0.00 0.00 99 1006.0
20260506010135 10 230 6.4 14.5 0.00 0.00 0.00 99 1005.9
20260506005053 10 227 3.2 9.7 0.00 0.00 0.00 99 1006.1
20260506004030 10 226 4.8 11.3 0.00 0.00 0.00 99 1006.1
20260506003028 10 228 4.8 14.5 0.00 0.00 0.00 99 1006.2
20260506002026 10 233 4.8 12.9 0.00 0.00 0.00 99 1006.3
20260506001024 10 227 6.4 14.5 0.00 0.00 0.00 99 1006.3
20260506000022 10 213 4.8 9.7 0.00 0.00 0.00 99 1006.5
20260505235020 10 219 3.2 8.0 0.00 0.00 0.00 99 1006.6
20260505234158 10 228 3.2 6.4 0.00 0.00 0.00 99 1006.7
20260505233016 10 255 3.2 6.4 0.00 0.00 0.00 99 1006.8
20260505232033 10 228 4.8 14.5 0.00 0.00 0.00 99 1006.8
20260505231031 10 225 4.8 12.9 0.00 0.00 0.00 99 1006.8
20260505230029 10 230 4.8 12.9 0.00 0.00 0.00 99 1007.0
20260505225047 10 237 3.2 11.3 0.00 0.00 0.00 99 1006.9
20260505224025 10 232 3.2 8.0 0.00 0.00 0.00 99 1007.0
20260505223022 10 231 4.8 14.5 0.00 0.00 0.00 99 1007.0
20260505222020 10 221 3.2 9.7 0.00 0.00 0.00 99 1007.1
20260505221018 10 224 3.2 11.3 0.00 0.00 0.00 99 1007.1
20260505220036 10 233 4.8 11.3 0.00 0.00 0.00 99 1007.2
20260505215034 10 229 4.8 9.7 0.00 0.00 0.00 99 1007.3
20260505214032 10 230 4.8 16.1 0.00 0.00 0.00 99 1007.4
20260505213029 10 226 3.2 8.0 0.00 0.00 0.00 99 1007.5
20260505212027 10 222 6.4 16.1 0.00 0.00 0.00 99 1007.5
20260505211025 10 231 3.2 8.0 0.00 0.00 0.00 99 1007.5
20260505210023 10 225 4.8 12.9 0.00 0.00 0.00 99 1007.6
20260505205021 10 226 4.8 11.3 0.00 0.00 0.00 99 1007.7
20260505204019 10 238 4.8 9.7 0.00 0.00 0.00 99 1007.7
20260505203037 10 228 3.2 11.3 0.00 0.00 0.00 98 1007.8
20260505202034 10 263 3.2 6.4 0.00 0.00 0.00 98 1007.8
20260505201032 10 230 6.4 12.9 0.00 0.00 0.00 98 1007.7
20260505200030 10 224 6.4 14.5 0.00 0.00 0.00 97 1007.7
20260505195028 10 225 8.0 16.1 0.00 0.00 0.00 97 1007.8
20260505194026 10 248 4.8 9.7 0.00 0.00 0.00 96 1007.8
20260505193024 10 227 8.0 16.1 0.00 0.00 0.00 96 1007.8
20260505192022 10 225 8.0 19.3 0.00 0.00 0.00 95 1007.8
20260505191019 10 247 8.0 17.7 0.00 0.00 0.00 94 1007.6
20260505190017 11 229 4.8 14.5 0.00 0.00 0.00 94 1007.8
20260505185015 11 223 4.8 8.0 0.00 0.00 0.00 94 1007.8
20260505184033 11 223 3.2 9.7 0.00 0.00 0.00 93 1007.7
20260505183031 11 224 3.2 9.7 0.00 0.00 0.00 93 1007.7
20260505182029 11 233 6.4 17.7 0.00 0.00 0.00 93 1007.8
20260505181026 11 218 3.2 9.7 0.00 0.00 0.00 93 1007.7
20260505180104 11 232 4.8 11.3 0.00 0.00 0.00 93 1007.8
20260505175042 11 230 4.8 11.3 0.00 0.00 0.00 93 1007.8
20260505174020 11 224 3.2 11.3 0.00 0.00 0.00 93 1007.9
20260505173018 11 229 4.8 14.5 0.00 0.00 0.00 93 1007.9
20260505172016 11 230 4.8 12.9 0.00 0.00 0.00 93 1007.9
20260505171033 11 236 9.7 16.1 0.00 0.00 0.00 92 1007.9
20260505170051 11 230 4.8 11.3 0.00 0.00 0.00 92 1007.8
20260505165029 11 229 4.8 11.3 0.00 0.00 0.00 92 1007.9
20260505164047 11 234 6.4 14.5 0.00 0.00 0.00 92 1008.0
20260505163025 11 221 4.8 12.9 0.00 0.00 0.00 92 1007.9
20260505162022 11 228 3.2 11.3 0.00 0.00 0.00 91 1008.1
20260505161040 11 224 3.2 9.7 0.00 0.00 0.00 92 1008.0
20260505153052 11 238 9.7 16.1 0.00 0.00 0.00 91 1008.1
20260505152029 11 259 3.2 9.7 0.00 0.00 0.00 92 1008.4
20260505151047 11 220 4.8 14.5 0.00 0.00 0.00 93 1008.5